| time (UTC) | temp F | wind direction | speed knots | gust knots | rain 1hr in | rain 24hr in | rain mn in | humidity % | barometer mb |
| 20260903205429 | 74 | 349 | 0.0 | 0.9 | 0.00 | 0.00 | 0.00 | 79 | 1016.7 |
| 20260903204929 | 74 | 349 | 0.0 | 2.6 | 0.00 | 0.00 | 0.00 | 77 | 1016.7 |
| 20260903204429 | 75 | 349 | 0.0 | 2.6 | 0.00 | 0.00 | 0.00 | 78 | 1016.7 |
| 20260903203929 | 75 | 349 | 0.0 | 0.0 | 0.00 | 0.00 | 0.00 | 77 | 1016.7 |
| 20260903203428 | 75 | 349 | 0.0 | 0.0 | 0.00 | 0.00 | 0.00 | 78 | 1016.7 |
| 20260903202929 | 76 | 349 | 0.0 | 0.0 | 0.00 | 0.00 | 0.00 | 78 | 1016.7 |
| 20260903202429 | 76 | 349 | 0.0 | 0.0 | 0.00 | 0.00 | 0.00 | 77 | 1016.7 |
| 20260903201929 | 76 | 349 | 0.0 | 0.0 | 0.00 | 0.00 | 0.00 | 77 | 1016.6 |
| 20260903201428 | 77 | 349 | 0.0 | 0.0 | 0.00 | 0.00 | 0.00 | 76 | 1016.6 |
| 20260903200930 | 77 | 349 | 0.0 | 0.0 | 0.00 | 0.00 | 0.00 | 76 | 1016.5 |
| 20260903195929 | 77 | 349 | 0.0 | 0.0 | 0.00 | 0.00 | 0.00 | 75 | 1016.5 |
| 20260903194929 | 77 | 349 | 0.0 | 0.0 | 0.00 | 0.00 | 0.00 | 75 | 1016.5 |
| 20260903193928 | 78 | 349 | 0.0 | 0.0 | 0.00 | 0.00 | 0.00 | 75 | 1016.4 |
| 20260903192928 | 77 | 349 | 0.0 | 0.0 | 0.00 | 0.00 | 0.00 | 75 | 1016.4 |
| 20260903192429 | 78 | 349 | 0.0 | 0.0 | 0.00 | 0.00 | 0.00 | 75 | 1016.4 |
| 20260903191929 | 78 | 349 | 0.0 | 0.0 | 0.00 | 0.00 | 0.00 | 74 | 1016.4 |
| 20260903191429 | 79 | 349 | 0.0 | 0.0 | 0.00 | 0.00 | 0.00 | 74 | 1016.4 |
| 20260903190929 | 79 | 349 | 0.0 | 0.0 | 0.00 | 0.00 | 0.00 | 74 | 1016.3 |
| 20260903190429 | 79 | 349 | 0.0 | 0.0 | 0.00 | 0.00 | 0.00 | 73 | 1016.3 |
| 20260903185429 | 78 | 349 | 0.0 | 0.0 | 0.00 | 0.00 | 0.00 | 73 | 1016.2 |
| 20260903184928 | 79 | 349 | 0.0 | 0.0 | 0.00 | 0.00 | 0.00 | 74 | 1016.1 |
| 20260903184428 | 79 | 349 | 0.0 | 0.0 | 0.00 | 0.00 | 0.00 | 73 | 1016.1 |
| 20260903183930 | 79 | 349 | 0.0 | 0.0 | 0.00 | 0.00 | 0.00 | 73 | 1016.1 |
| 20260903183428 | 79 | 349 | 0.0 | 0.0 | 0.00 | 0.00 | 0.00 | 72 | 1016.0 |
| 20260903182928 | 79 | 349 | 0.0 | 0.9 | 0.00 | 0.00 | 0.00 | 72 | 1016.0 |
| 20260903182428 | 80 | 349 | 0.9 | 1.7 | 0.00 | 0.00 | 0.00 | 71 | 1015.9 |
| 20260903181928 | 80 | 349 | 0.9 | 1.7 | 0.00 | 0.00 | 0.00 | 71 | 1015.9 |
| 20260903181428 | 80 | 349 | 0.9 | 1.7 | 0.00 | 0.00 | 0.00 | 70 | 1015.9 |
| 20260903180929 | 81 | 349 | 0.0 | 0.0 | 0.00 | 0.00 | 0.00 | 69 | 1015.8 |
| 20260903180428 | 81 | 349 | 0.0 | 0.9 | 0.00 | 0.00 | 0.00 | 68 | 1015.8 |
| 20260903175928 | 81 | 349 | 0.0 | 0.9 | 0.00 | 0.00 | 0.00 | 67 | 1015.7 |
| 20260903175428 | 82 | 349 | 0.0 | 0.0 | 0.00 | 0.00 | 0.00 | 67 | 1015.7 |
| 20260903174929 | 82 | 349 | 0.0 | 0.9 | 0.00 | 0.00 | 0.00 | 66 | 1015.8 |
| 20260903174428 | 83 | 349 | 0.0 | 0.0 | 0.00 | 0.00 | 0.00 | 65 | 1015.7 |
| 20260903173929 | 84 | 349 | 0.0 | 0.9 | 0.00 | 0.00 | 0.00 | 64 | 1015.7 |
| 20260903173428 | 85 | 349 | 0.9 | 1.7 | 0.00 | 0.00 | 0.00 | 55 | 1015.7 |
| 20260903172929 | 86 | 339 | 1.7 | 2.6 | 0.00 | 0.00 | 0.00 | 55 | 1015.7 |
| 20260903172428 | 87 | 335 | 1.7 | 2.6 | 0.00 | 0.00 | 0.00 | 55 | 1015.7 |
| 20260903171928 | 87 | 326 | 0.9 | 2.6 | 0.00 | 0.00 | 0.00 | 55 | 1015.7 |
| 20260903171428 | 87 | 324 | 1.7 | 2.6 | 0.00 | 0.00 | 0.00 | 53 | 1015.6 |
| 20260903170428 | 88 | 299 | 2.6 | 5.2 | 0.00 | 0.00 | 0.00 | 52 | 1015.6 |
| 20260903165428 | 89 | 316 | 2.6 | 2.6 | 0.00 | 0.00 | 0.00 | 51 | 1015.6 |
| 20260903164928 | 89 | 300 | 2.6 | 4.3 | 0.00 | 0.00 | 0.00 | 50 | 1015.5 |
| 20260903164428 | 89 | 306 | 2.6 | 6.1 | 0.00 | 0.00 | 0.00 | 50 | 1015.5 |
| 20260903163928 | 89 | 297 | 0.9 | 6.1 | 0.00 | 0.00 | 0.00 | 50 | 1015.5 |
| 20260903163428 | 89 | 240 | 1.7 | 4.3 | 0.00 | 0.00 | 0.00 | 49 | 1015.4 |
| 20260903162929 | 90 | 219 | 1.7 | 2.6 | 0.00 | 0.00 | 0.00 | 50 | 1015.4 |
| 20260903162428 | 90 | 255 | 3.5 | 6.1 | 0.00 | 0.00 | 0.00 | 50 | 1015.4 |
| 20260903161929 | 90 | 252 | 2.6 | 5.2 | 0.00 | 0.00 | 0.00 | 51 | 1015.3 |
| 20260903160929 | 90 | 275 | 3.5 | 6.1 | 0.00 | 0.00 | 0.00 | 48 | 1015.3 |
| 20260903160428 | 90 | 272 | 1.7 | 5.2 | 0.00 | 0.00 | 0.00 | 49 | 1015.3 |
| 20260903155928 | 90 | 271 | 2.6 | 4.3 | 0.00 | 0.00 | 0.00 | 48 | 1015.3 |
| 20260903155429 | 91 | 249 | 4.3 | 7.0 | 0.00 | 0.00 | 0.00 | 48 | 1015.3 |
| 20260903154928 | 91 | 206 | 2.6 | 5.2 | 0.00 | 0.00 | 0.00 | 47 | 1015.3 |
| 20260903153927 | 91 | 289 | 2.6 | 6.1 | 0.00 | 0.00 | 0.00 | 46 | 1015.3 |
| 20260903153428 | 91 | 272 | 4.3 | 10.4 | 0.00 | 0.00 | 0.00 | 47 | 1015.4 |
| 20260903152927 | 91 | 230 | 2.6 | 10.4 | 0.00 | 0.00 | 0.00 | 48 | 1015.4 |
| 20260903152429 | 91 | 286 | 4.3 | 10.4 | 0.00 | 0.00 | 0.00 | 49 | 1015.4 |
| 20260903151928 | 91 | 277 | 5.2 | 13.0 | 0.00 | 0.00 | 0.00 | 49 | 1015.3 |
| 20260903151428 | 91 | 292 | 3.5 | 6.1 | 0.00 | 0.00 | 0.00 | 47 | 1015.3 |
| 20260903150927 | 91 | 250 | 0.9 | 4.3 | 0.00 | 0.00 | 0.00 | 44 | 1015.3 |
| 20260903150428 | 91 | 262 | 4.3 | 7.0 | 0.00 | 0.00 | 0.00 | 48 | 1015.4 |
| 20260903145928 | 91 | 237 | 4.3 | 6.1 | 0.00 | 0.00 | 0.00 | 49 | 1015.4 |
| 20260903145427 | 91 | 221 | 1.7 | 5.2 | 0.00 | 0.00 | 0.00 | 50 | 1015.4 |
| 20260903144929 | 90 | 245 | 2.6 | 2.6 | 0.00 | 0.00 | 0.00 | 51 | 1015.6 |
| 20260903144428 | 90 | 166 | 1.7 | 5.2 | 0.00 | 0.00 | 0.00 | 54 | 1015.6 |
| 20260903143927 | 90 | 107 | 3.5 | 6.1 | 0.00 | 0.00 | 0.00 | 53 | 1015.7 |
| 20260903143428 | 90 | 115 | 2.6 | 4.3 | 0.00 | 0.00 | 0.00 | 53 | 1015.8 |
| 20260903142928 | 90 | 93 | 1.7 | 2.6 | 0.00 | 0.00 | 0.00 | 54 | 1015.9 |
| 20260903142427 | 90 | 122 | 0.9 | 2.6 | 0.00 | 0.00 | 0.00 | 54 | 1016.0 |
| 20260903141928 | 90 | 94 | 1.7 | 4.3 | 0.00 | 0.00 | 0.00 | 54 | 1016.1 |
| 20260903141427 | 90 | 12 | 0.9 | 1.7 | 0.00 | 0.00 | 0.00 | 53 | 1016.1 |
| 20260903140929 | 89 | 52 | 1.7 | 5.2 | 0.00 | 0.00 | 0.00 | 53 | 1016.2 |
| 20260903140427 | 90 | 140 | 4.3 | 5.2 | 0.00 | 0.00 | 0.00 | 54 | 1016.1 |
| 20260903135927 | 90 | 191 | 1.7 | 2.6 | 0.00 | 0.00 | 0.00 | 55 | 1016.2 |
| 20260903134927 | 90 | 145 | 2.6 | 5.2 | 0.00 | 0.00 | 0.00 | 54 | 1016.2 |
| 20260903134428 | 90 | 147 | 1.7 | 4.3 | 0.00 | 0.00 | 0.00 | 54 | 1016.2 |
| 20260903133928 | 90 | 103 | 1.7 | 2.6 | 0.00 | 0.00 | 0.00 | 54 | 1016.3 |
| 20260903133427 | 89 | 110 | 2.6 | 7.0 | 0.00 | 0.00 | 0.00 | 55 | 1016.4 |
| 20260903132428 | 90 | 53 | 2.6 | 6.1 | 0.00 | 0.00 | 0.00 | 55 | 1016.4 |
| 20260903131928 | 90 | 324 | 1.7 | 4.3 | 0.00 | 0.00 | 0.00 | 54 | 1016.5 |
| 20260903131427 | 89 | 275 | 0.0 | 6.1 | 0.00 | 0.00 | 0.00 | 57 | 1016.5 |
| 20260903130928 | 89 | 70 | 3.5 | 6.1 | 0.00 | 0.00 | 0.00 | 55 | 1016.5 |
| 20260903130428 | 89 | 43 | 2.6 | 6.1 | 0.00 | 0.00 | 0.00 | 54 | 1016.6 |
| 20260903125927 | 89 | 74 | 3.5 | 6.1 | 0.00 | 0.00 | 0.00 | 56 | 1016.6 |
| 20260903125428 | 89 | 114 | 1.7 | 7.8 | 0.00 | 0.00 | 0.00 | 55 | 1016.6 |
| 20260903124428 | 89 | 97 | 4.3 | 6.1 | 0.00 | 0.00 | 0.00 | 55 | 1016.7 |
| 20260903123927 | 89 | 86 | 2.6 | 5.2 | 0.00 | 0.00 | 0.00 | 56 | 1016.8 |
| 20260903123427 | 88 | 99 | 3.5 | 6.1 | 0.00 | 0.00 | 0.00 | 56 | 1016.9 |
| 20260903122428 | 89 | 85 | 3.5 | 6.1 | 0.00 | 0.00 | 0.00 | 57 | 1016.7 |
| 20260903121927 | 88 | 105 | 5.2 | 7.8 | 0.00 | 0.00 | 0.00 | 58 | 1016.8 |
| 20260903121428 | 88 | 94 | 1.7 | 7.0 | 0.00 | 0.00 | 0.00 | 56 | 1016.8 |
| 20260903120928 | 89 | 106 | 1.7 | 5.2 | 0.00 | 0.00 | 0.00 | 57 | 1016.8 |
| 20260903120427 | 88 | 81 | 2.6 | 8.7 | 0.00 | 0.00 | 0.00 | 56 | 1016.9 |
| 20260903115427 | 88 | 111 | 3.5 | 5.2 | 0.00 | 0.00 | 0.00 | 58 | 1017.0 |
| 20260903114927 | 89 | 300 | 0.9 | 4.3 | 0.00 | 0.00 | 0.00 | 61 | 1017.0 |
| 20260903114427 | 88 | 294 | 0.9 | 2.6 | 0.00 | 0.00 | 0.00 | 59 | 1017.1 |
| 20260903113427 | 88 | 129 | 3.5 | 6.1 | 0.00 | 0.00 | 0.00 | 57 | 1017.1 |
| 20260903112927 | 88 | 125 | 4.3 | 7.0 | 0.00 | 0.00 | 0.00 | 58 | 1017.2 |
| 20260903112427 | 87 | 134 | 3.5 | 6.1 | 0.00 | 0.00 | 0.00 | 58 | 1017.2 |
| 20260903110929 | 87 | 54 | 4.3 | 7.0 | 0.00 | 0.00 | 0.00 | 61 | 1017.6 |
| 20260903110427 | 87 | 79 | 6.1 | 7.8 | 0.00 | 0.00 | 0.00 | 60 | 1017.6 |
| 20260903105427 | 87 | 81 | 5.2 | 10.4 | 0.00 | 0.00 | 0.00 | 61 | 1017.6 |
| 20260903104927 | 87 | 92 | 2.6 | 6.1 | 0.00 | 0.00 | 0.00 | 61 | 1017.6 |
| 20260903104427 | 86 | 20 | 0.9 | 6.1 | 0.00 | 0.00 | 0.00 | 64 | 1017.7 |
| 20260903103927 | 86 | 133 | 1.7 | 4.3 | 0.00 | 0.00 | 0.00 | 63 | 1017.7 |
| 20260903103426 | 86 | 111 | 2.6 | 6.1 | 0.00 | 0.00 | 0.00 | 63 | 1017.7 |
| 20260903102427 | 85 | 47 | 2.6 | 7.0 | 0.00 | 0.00 | 0.00 | 63 | 1017.9 |
| 20260903101927 | 85 | 82 | 3.5 | 7.0 | 0.00 | 0.00 | 0.00 | 63 | 1017.9 |
| 20260903101427 | 85 | 119 | 0.9 | 4.3 | 0.00 | 0.00 | 0.00 | 64 | 1018.0 |
| 20260903100927 | 85 | 101 | 4.3 | 7.8 | 0.00 | 0.00 | 0.00 | 64 | 1018.1 |
| 20260903095427 | 84 | 58 | 3.5 | 6.1 | 0.00 | 0.00 | 0.00 | 65 | 1018.3 |
| 20260903094426 | 84 | 81 | 2.6 | 6.1 | 0.00 | 0.00 | 0.00 | 63 | 1018.3 |
| 20260903093927 | 84 | 134 | 2.6 | 5.2 | 0.00 | 0.00 | 0.00 | 65 | 1018.4 |
| 20260903093426 | 84 | 57 | 0.9 | 2.6 | 0.00 | 0.00 | 0.00 | 66 | 1018.5 |
| 20260903092927 | 83 | 118 | 2.6 | 6.1 | 0.00 | 0.00 | 0.00 | 65 | 1018.5 |
| 20260903092427 | 83 | 136 | 2.6 | 6.1 | 0.00 | 0.00 | 0.00 | 64 | 1018.5 |
| 20260903091927 | 83 | 110 | 6.1 | 7.8 | 0.00 | 0.00 | 0.00 | 64 | 1018.6 |
| 20260903091427 | 83 | 64 | 3.5 | 6.1 | 0.00 | 0.00 | 0.00 | 66 | 1018.7 |
| 20260903090926 | 83 | 107 | 2.6 | 5.2 | 0.00 | 0.00 | 0.00 | 64 | 1018.7 |
| 20260903085927 | 82 | 132 | 2.6 | 6.1 | 0.00 | 0.00 | 0.00 | 66 | 1018.7 |
| 20260903084926 | 81 | 126 | 2.6 | 6.1 | 0.00 | 0.00 | 0.00 | 69 | 1018.5 |
| 20260903084430 | 81 | 115 | 2.6 | 6.1 | 0.00 | 0.00 | 0.00 | 67 | 1018.5 |
| 20260903083427 | 81 | 46 | 1.7 | 5.2 | 0.00 | 0.00 | 0.00 | 68 | 1018.5 |
| 20260903082926 | 81 | 89 | 4.3 | 7.8 | 0.00 | 0.00 | 0.00 | 68 | 1018.5 |
| 20260903082427 | 80 | 105 | 4.3 | 7.0 | 0.00 | 0.00 | 0.00 | 67 | 1018.4 |
| 20260903081942 | 80 | 93 | 3.5 | 7.0 | 0.00 | 0.00 | 0.00 | 69 | 1018.3 |
| 20260903081427 | 80 | 107 | 3.5 | 7.8 | 0.00 | 0.00 | 0.00 | 68 | 1018.3 |
| 20260903080926 | 80 | 74 | 5.2 | 8.7 | 0.00 | 0.00 | 0.00 | 68 | 1018.3 |
| 20260903080427 | 79 | 61 | 4.3 | 7.8 | 0.00 | 0.00 | 0.00 | 70 | 1018.4 |
| 20260903075927 | 78 | 89 | 3.5 | 7.0 | 0.00 | 0.00 | 0.00 | 73 | 1018.4 |
| 20260903074927 | 78 | 67 | 2.6 | 4.3 | 0.00 | 0.00 | 0.00 | 77 | 1018.3 |
| 20260903074426 | 78 | 83 | 2.6 | 4.3 | 0.00 | 0.00 | 0.00 | 77 | 1018.3 |
| 20260903073927 | 77 | 80 | 1.7 | 4.3 | 0.00 | 0.00 | 0.00 | 77 | 1018.2 |
| 20260903073426 | 77 | 81 | 1.7 | 5.2 | 0.00 | 0.00 | 0.00 | 77 | 1018.2 |
| 20260903072926 | 77 | 26 | 1.7 | 2.6 | 0.00 | 0.00 | 0.00 | 78 | 1018.2 |
| 20260903072427 | 76 | 102 | 2.6 | 4.3 | 0.00 | 0.00 | 0.00 | 79 | 1018.2 |
| 20260903071926 | 75 | 119 | 1.7 | 2.6 | 0.00 | 0.00 | 0.00 | 81 | 1018.2 |
| 20260903071429 | 75 | 102 | 1.7 | 2.6 | 0.00 | 0.00 | 0.00 | 80 | 1018.1 |
| 20260903070430 | 75 | 93 | 1.7 | 4.3 | 0.00 | 0.00 | 0.00 | 82 | 1018.1 |
| 20260903065926 | 75 | 90 | 1.7 | 4.3 | 0.00 | 0.00 | 0.00 | 83 | 1018.1 |
| 20260903065426 | 74 | 76 | 1.7 | 4.3 | 0.00 | 0.00 | 0.00 | 82 | 1018.1 |
| 20260903064933 | 74 | 69 | 1.7 | 2.6 | 0.00 | 0.00 | 0.00 | 82 | 1018.1 |
| 20260903064426 | 74 | 68 | 1.7 | 2.6 | 0.00 | 0.00 | 0.00 | 83 | 1018.1 |
| 20260903063428 | 73 | 75 | 0.9 | 2.6 | 0.00 | 0.00 | 0.00 | 83 | 1018.0 |
| 20260903062427 | 73 | 55 | 1.7 | 2.6 | 0.00 | 0.00 | 0.00 | 83 | 1018.0 |
| 20260903061926 | 73 | 55 | 0.9 | 1.7 | 0.00 | 0.00 | 0.00 | 83 | 1018.0 |
| 20260903060926 | 72 | 53 | 1.7 | 2.6 | 0.00 | 0.00 | 0.00 | 83 | 1018.0 |
| 20260903060426 | 72 | 53 | 0.9 | 1.7 | 0.00 | 0.00 | 0.00 | 84 | 1018.0 |
| 20260903055929 | 71 | 53 | 0.9 | 1.7 | 0.00 | 0.00 | 0.00 | 85 | 1018.0 |
| 20260903055427 | 71 | 44 | 1.7 | 2.6 | 0.00 | 0.00 | 0.00 | 87 | 1017.8 |
| 20260903054427 | 70 | 13 | 0.9 | 1.7 | 0.00 | 0.00 | 0.00 | 89 | 1017.7 |
| 20260903053927 | 69 | 347 | 0.0 | 0.0 | 0.00 | 0.00 | 0.00 | 89 | 1017.6 |
| 20260903053426 | 69 | 347 | 0.0 | 0.9 | 0.00 | 0.00 | 0.00 | 89 | 1017.6 |
| 20260903052927 | 69 | 347 | 0.0 | 1.7 | 0.00 | 0.00 | 0.00 | 90 | 1017.5 |
| 20260903052430 | 68 | 347 | 0.0 | 0.0 | 0.00 | 0.00 | 0.00 | 91 | 1017.4 |
| 20260903051928 | 68 | 347 | 0.0 | 0.0 | 0.00 | 0.00 | 0.00 | 91 | 1017.4 |
| 20260903051426 | 68 | 347 | 0.0 | 0.0 | 0.00 | 0.00 | 0.00 | 91 | 1017.4 |
| 20260903050926 | 68 | 330 | 0.0 | 0.0 | 0.00 | 0.00 | 0.00 | 91 | 1017.3 |
| 20260903045426 | 68 | 355 | 0.0 | 0.0 | 0.00 | 0.00 | 0.00 | 90 | 1017.2 |
| 20260903044926 | 68 | 0 | 0.0 | 0.0 | 0.00 | 0.00 | 0.00 | 90 | 1017.1 |
| 20260903044429 | 68 | 0 | 0.0 | 0.9 | 0.00 | 0.00 | 0.00 | 90 | 1017.0 |
| 20260903043926 | 68 | 0 | 0.9 | 1.7 | 0.00 | 0.00 | 0.00 | 90 | 1017.0 |
| 20260903043426 | 68 | 0 | 0.9 | 2.6 | 0.00 | 0.00 | 0.00 | 90 | 1016.9 |
| 20260903042427 | 68 | 57 | 0.0 | 1.7 | 0.00 | 0.00 | 0.00 | 90 | 1016.9 |
| 20260903041931 | 69 | 57 | 0.0 | 0.0 | 0.00 | 0.00 | 0.00 | 90 | 1016.9 |
| 20260903041426 | 69 | 57 | 0.0 | 0.0 | 0.00 | 0.00 | 0.00 | 89 | 1016.8 |
| 20260903040942 | 69 | 57 | 0.0 | 0.9 | 0.00 | 0.00 | 0.00 | 89 | 1016.9 |
| 20260903035925 | 69 | 57 | 0.9 | 1.7 | 0.00 | 0.00 | 0.00 | 90 | 1016.9 |
| 20260903035426 | 69 | 57 | 0.9 | 1.7 | 0.00 | 0.00 | 0.00 | 89 | 1016.9 |
| 20260903034927 | 69 | 57 | 1.7 | 2.6 | 0.00 | 0.00 | 0.00 | 89 | 1016.8 |
| 20260903033933 | 69 | 57 | 1.7 | 4.3 | 0.00 | 0.00 | 0.00 | 90 | 1016.9 |
| 20260903033427 | 68 | 53 | 2.6 | 2.6 | 0.00 | 0.00 | 0.00 | 90 | 1016.8 |
| 20260903032941 | 68 | 67 | 1.7 | 2.6 | 0.00 | 0.00 | 0.00 | 91 | 1016.8 |
| 20260903032426 | 68 | 71 | 2.6 | 4.3 | 0.00 | 0.00 | 0.00 | 91 | 1016.8 |
| 20260903031426 | 68 | 74 | 0.0 | 0.0 | 0.00 | 0.00 | 0.00 | 91 | 1016.7 |
| 20260903030926 | 68 | 74 | 0.0 | 0.0 | 0.00 | 0.00 | 0.00 | 91 | 1016.8 |
| 20260903030426 | 68 | 74 | 0.0 | 0.0 | 0.00 | 0.00 | 0.00 | 91 | 1016.8 |
| 20260903025925 | 68 | 74 | 0.0 | 0.0 | 0.00 | 0.00 | 0.00 | 91 | 1016.8 |
| 20260903025425 | 68 | 74 | 0.0 | 0.0 | 0.00 | 0.00 | 0.00 | 91 | 1016.8 |
| 20260903024927 | 68 | 74 | 0.0 | 0.0 | 0.00 | 0.00 | 0.00 | 90 | 1016.8 |
| 20260903024426 | 69 | 83 | 0.0 | 0.0 | 0.00 | 0.00 | 0.00 | 90 | 1016.8 |
| 20260903023927 | 69 | 83 | 0.0 | 0.0 | 0.00 | 0.00 | 0.00 | 90 | 1016.8 |
| 20260903023427 | 69 | 83 | 0.0 | 0.0 | 0.00 | 0.00 | 0.00 | 90 | 1016.8 |
| 20260903022942 | 69 | 56 | 0.0 | 0.0 | 0.00 | 0.00 | 0.00 | 90 | 1016.7 |
| 20260903022426 | 69 | 56 | 0.0 | 0.0 | 0.00 | 0.00 | 0.00 | 90 | 1016.7 |
| 20260903021926 | 69 | 56 | 0.0 | 0.0 | 0.00 | 0.00 | 0.00 | 90 | 1016.8 |
| 20260903020925 | 69 | 56 | 0.0 | 0.0 | 0.00 | 0.00 | 0.00 | 89 | 1016.8 |
| 20260903020425 | 69 | 56 | 0.0 | 0.0 | 0.00 | 0.00 | 0.00 | 89 | 1016.7 |
| 20260903015926 | 69 | 56 | 0.0 | 0.0 | 0.00 | 0.00 | 0.00 | 89 | 1016.7 |
| 20260903014926 | 69 | 56 | 1.7 | 2.6 | 0.00 | 0.00 | 0.00 | 89 | 1016.7 |
| 20260903014425 | 69 | 56 | 1.7 | 2.6 | 0.00 | 0.00 | 0.00 | 88 | 1016.7 |
| 20260903013426 | 69 | 57 | 0.9 | 1.7 | 0.00 | 0.00 | 0.00 | 88 | 1016.7 |
| 20260903012925 | 69 | 57 | 0.9 | 1.7 | 0.00 | 0.00 | 0.00 | 88 | 1016.7 |
| 20260903012427 | 69 | 40 | 0.9 | 1.7 | 0.00 | 0.00 | 0.00 | 88 | 1016.6 |
| 20260903011425 | 69 | 66 | 1.7 | 2.6 | 0.00 | 0.00 | 0.00 | 87 | 1016.6 |
| 20260903010930 | 69 | 66 | 0.0 | 2.6 | 0.00 | 0.00 | 0.00 | 87 | 1016.7 |
| 20260903010428 | 69 | 66 | 1.7 | 2.6 | 0.00 | 0.00 | 0.00 | 87 | 1016.7 |
| 20260903005925 | 70 | 66 | 2.6 | 2.6 | 0.00 | 0.00 | 0.00 | 87 | 1016.7 |
| 20260903004425 | 70 | 66 | 0.9 | 2.6 | 0.00 | 0.00 | 0.00 | 86 | 1016.6 |
| 20260903003925 | 70 | 66 | 1.7 | 2.6 | 0.00 | 0.00 | 0.00 | 86 | 1016.6 |
| 20260903003426 | 70 | 66 | 1.7 | 2.6 | 0.00 | 0.00 | 0.00 | 85 | 1016.5 |
| 20260903001426 | 71 | 55 | 1.7 | 2.6 | 0.00 | 0.00 | 0.00 | 85 | 1016.5 |
| 20260903000926 | 71 | 55 | 0.9 | 1.7 | 0.00 | 0.00 | 0.00 | 85 | 1016.5 |
| 20260903000426 | 71 | 56 | 0.9 | 1.7 | 0.00 | 0.00 | 0.00 | 84 | 1016.5 |
| 20260902235925 | 71 | 56 | 0.9 | 1.7 | 0.00 | 0.00 | 0.00 | 84 | 1016.4 |
| 20260902234925 | 71 | 55 | 1.7 | 2.6 | 0.00 | 0.00 | 0.00 | 85 | 1016.4 |
| 20260902234425 | 71 | 56 | 1.7 | 2.6 | 0.00 | 0.00 | 0.00 | 86 | 1016.3 |
| 20260902232425 | 72 | 56 | 1.7 | 2.6 | 0.00 | 0.00 | 0.00 | 85 | 1016.4 |
| 20260902231925 | 72 | 56 | 1.7 | 2.6 | 0.00 | 0.00 | 0.00 | 86 | 1016.4 |
| 20260902231426 | 71 | 56 | 1.7 | 2.6 | 0.00 | 0.00 | 0.00 | 86 | 1016.4 |
| 20260902230425 | 72 | 37 | 1.7 | 2.6 | 0.00 | 0.00 | 0.00 | 86 | 1016.4 |
| 20260902225925 | 72 | 37 | 0.0 | 1.7 | 0.00 | 0.00 | 0.00 | 85 | 1016.3 |
| 20260902225425 | 72 | 37 | 0.9 | 2.6 | 0.00 | 0.00 | 0.00 | 84 | 1016.3 |
| 20260902224927 | 73 | 37 | 2.6 | 2.6 | 0.00 | 0.00 | 0.00 | 84 | 1016.3 |
| 20260902224440 | 73 | 38 | 0.9 | 2.6 | 0.00 | 0.00 | 0.00 | 84 | 1016.3 |
| 20260902223425 | 73 | 16 | 2.6 | 4.3 | 0.00 | 0.00 | 0.00 | 84 | 1016.2 |
| 20260902221926 | 73 | 180 | 0.9 | 1.7 | 0.00 | 0.00 | 0.00 | 83 | 1016.1 |
| 20260902221425 | 73 | 180 | 0.0 | 0.0 | 0.00 | 0.00 | 0.00 | 82 | 1016.1 |
| 20260902220925 | 73 | 180 | 0.0 | 0.0 | 0.00 | 0.00 | 0.00 | 82 | 1016.1 |
| 20260902215925 | 74 | 180 | 0.0 | 0.0 | 0.00 | 0.00 | 0.00 | 81 | 1016.1 |
| 20260902215425 | 74 | 180 | 0.9 | 1.7 | 0.00 | 0.00 | 0.00 | 80 | 1016.0 |
| 20260902214940 | 74 | 180 | 0.0 | 0.0 | 0.00 | 0.00 | 0.00 | 80 | 1016.0 |
| 20260902214427 | 74 | 180 | 0.9 | 1.7 | 0.00 | 0.00 | 0.00 | 81 | 1016.0 |
| 20260902213925 | 74 | 180 | 0.9 | 1.7 | 0.00 | 0.00 | 0.00 | 81 | 1016.0 |
| 20260902212425 | 74 | 211 | 0.0 | 0.0 | 0.00 | 0.00 | 0.00 | 80 | 1015.8 |
| 20260902211924 | 74 | 211 | 0.0 | 0.0 | 0.00 | 0.00 | 0.00 | 80 | 1015.8 |
| 20260902211425 | 75 | 211 | 0.0 | 0.0 | 0.00 | 0.00 | 0.00 | 79 | 1015.7 |
| 20260902210924 | 75 | 211 | 0.0 | 0.0 | 0.00 | 0.00 | 0.00 | 79 | 1015.7 |
| 20260902210424 | 75 | 211 | 0.0 | 0.0 | 0.00 | 0.00 | 0.00 | 78 | 1015.7 |
| 20260902205925 | 75 | 211 | 0.0 | 0.0 | 0.00 | 0.00 | 0.00 | 78 | 1015.7 |